Flag for U.S.A. Weather past 2 weeks in Detroit, Michigan, U.S.A.

Now
26 °F

Overcast.


Feels Like: 14 °F
Forecast: 16 / 32 °F
Wind: 14 mph from Northeast

Location: Detroit City Airport

Current Time: Jan 25, 2015 at 9:49:02 AM

Latest Report: Jan 25, 2015 at 8:53 AM


Visibility: 10 mi

Pressure: 29.88 "Hg

Humidity: 66%

Dew point: 16 °F

Location of DetroitLocation

Historic Weather in Detroit — Graph

°F

Detroit temperature yesterday

Maximum temperature yesterday: 38 °F (at 7:53 PM)
Minimum temperature yesterday: 27 °F (at 12:53 AM)
Average temperature yesterday: 33 °F

Past Weeks' High & Low Weather Summary

 TemperatureHumidityPressure
High44 °F (Jan 17, 11:53 PM)86% (Jan 18, 10:53 AM)30.79 "Hg (Jan 18, 10:53 AM)
Low3 °F (Jan 10, 8:53 AM)47% (Jan 13, 12:53 PM)28.17 "Hg (Jan 11, 7:53 AM)
Average26 °F69%30.13 "Hg
* Reported Jan 10 8:53 AM — Jan 25 8:53 AM, Detroit, Weather by CustomWeather, © 2014

Note: Actual official high and low records may vary slightly from our data, if they occured in-between our weather recording intervals... More about our weather records

Advertising

Detroit weather history for previous 24 hours

 ConditionsComfort  
Time TempWeatherWind HumidityBarometerVisibility
8:53 AM
Jan 25
26 °FOvercast.14 mph66%29.88 "Hg10 mi
7:53 AM26 °FOvercast.7 mph69%29.87 "Hg10 mi
6:53 AM27 °FOvercast.9 mph69%29.85 "Hg10 mi
5:53 AM29 °FOvercast.13 mph66%29.80 "Hg10 mi
4:53 AM32 °FOvercast.14 mph75%29.78 "Hg10 mi
3:53 AM34 °FOvercast.8 mph76%29.75 "Hg10 mi
2:53 AM36 °FMostly cloudy.3 mph82%29.72 "Hg7 mi
1:53 AM36 °FMostly cloudy.5 mph82%29.70 "Hg7 mi
12:53 AM36 °FPartly cloudy.5 mph79%29.69 "Hg7 mi
11:53 PM
Jan 24
37 °FOvercast.8 mph79%29.69 "Hg9 mi
10:53 PM37 °FPassing clouds.6 mph76%29.68 "Hg10 mi
9:53 PM38 °FMostly cloudy.7 mph73%29.67 "Hg10 mi
8:53 PM38 °FOvercast.8 mph73%29.66 "Hg10 mi
7:53 PM38 °FOvercast.6 mph70%29.65 "Hg9 mi
6:53 PM37 °FOvercast.7 mph73%29.62 "Hg7 mi
5:53 PM37 °FMostly cloudy.8 mph73%29.60 "Hg7 mi
4:53 PM37 °FMore clouds than sun.7 mph73%29.59 "Hg5 mi
3:53 PM36 °FMostly cloudy.10 mph73%29.57 "Hg5 mi
2:53 PM35 °FOvercast.10 mph72%29.57 "Hg5 mi
1:53 PM33 °FOvercast.10 mph75%29.57 "Hg5 mi
12:53 PM32 °FOvercast.14 mph79%29.59 "Hg4 mi
11:53 AM32 °FOvercast.10 mph75%29.63 "Hg5 mi
10:53 AM31 °FOvercast.10 mph76%29.65 "Hg5 mi
9:53 AM30 °FOvercast.9 mph79%29.65 "Hg5 mi
Weather by CustomWeather, © 2014

See weather overviewHow to use our weather pages